User: anonymous   Login
Location: Bretagne
(43.8474°N, 0.4650°W)
Time: 05:53:13
(UTC+00:00)
Language:

Radarsat Rocket - Orbit

View from above orbital plane
View from above orbital plane
View from above satellite
View from above satellite

Ground track
Ground track

The orbit is defined by the following mean orbital elements,

1 23711U          26067.99064598 +.00000000 +00000-0 +56060-4 0 00009
2 23711 100.5073  98.0161 0367176 322.9791  91.1910 13.12851588    03
Epoch (UTC): 08 March 2026 23:46:31
Eccentricity: 0.0367176
inclination: 100.5073°
perigee height: 933 km
apogee height: 1491 km
right ascension of ascending node: 98.0161°
argument of perigee: 322.9791°
revolutions per day: 13.12851588
mean anomaly at epoch: 91.1910°

The dashed part of the orbit path shows where the satellite is in the earth's shadow,  

DLR